#timestamp,LO_Frequency,Hit,StdDev 
1459792815.4,286046996.7,N
1459792835.2,286046997.1,N
1459792855.1,286046997.0,N
1459792856.0,286046997.0,N
1459792875.8,286046998.7,N
1459792895.6,286047000.2,N
1459792915.5,286047001.6,N
1459792935.3,286047001.8,N
1459792955.1,286047002.2,N
1459792975.9,286047000.3,N
1459792995.7,286046998.4,N
1459793015.5,286046997.0,N
1459793035.4,286046997.9,N
1459793055.2,286046998.8,N
1459793075.0,286046998.5,N
1459793075.9,286046998.5,N
1459793095.8,286047000.5,N
1459793115.6,286047000.5,N
1459793135.4,286047000.1,N
1459793155.2,286047000.5,N
1459793175.1,286046998.2,N
1459793176.0,286046998.2,N
1459793195.8,286047000.1,N
1459793215.6,286047002.5,N
1459793235.5,286047000.5,N
1459793255.3,286046998.2,N
1459793275.1,286046996.7,N
1459793295.9,286046997.1,N
1459793315.7,286046998.0,N
1459793335.5,286046998.4,N
1459793355.4,286046996.8,N
1459793375.2,286046996.5,N
1459793395.0,286046998.4,N
1459793395.9,286046998.4,N
1459793415.8,286046998.5,N
1459793435.6,286046999.4,N
1459793455.4,286046999.5,N
1459793475.3,286046997.4,N
1459793495.1,286046999.6,N
1459793496.0,286046999.6,N
1459793515.8,286046997.2,N
1459793535.7,286046997.3,N
1459793555.5,286046999.2,N
1459793575.3,286047000.8,N
1459793595.1,286046999.4,N
1459793615.9,286046997.3,N
1459793635.7,286046997.8,N
1459793655.5,286046996.7,N
1459793675.4,286046998.3,N
1459793695.2,286046999.0,N
1459793715.0,286046999.3,N
1459793715.9,286046999.3,N
1459793735.8,286046997.5,N
1459793755.6,286046995.0,Y
1459793775.4,286046999.5,P
1459793795.3,286046998.1,P
1459793815.1,286046998.3,N
1459793835.8,286046996.9,Y
1459793855.7,286047000.5,P
1459793875.5,286047000.2,N
1459793895.3,286046999.3,N
1459793915.2,286046998.1,N
1459793935.9,286047000.9,N
1459793955.7,286047002.6,N
1459793975.6,286047000.3,N
1459793995.4,286047001.1,N
1459794015.2,286046999.6,N
1459794035.0,286046997.8,N
1459794036.0,286046997.8,N
1459794055.8,286046997.0,N
1459794075.6,286046998.7,N
1459794095.4,286046999.6,N
1459794115.3,286046997.6,N
1459794135.1,286046999.0,N
1459794155.8,286046999.2,N
1459794175.7,286046999.4,N
1459794195.5,286046999.2,N
1459794215.3,286046994.9,Y
1459794235.2,286046996.9,P
1459794255.9,286046998.2,N
1459794275.7,286046998.7,N
1459794295.6,286046996.5,Y
1459794315.4,286046998.2,P
1459794335.2,286047000.7,P
1459794355.1,286047002.4,N
1459794356.0,286047002.4,N
1459794375.8,286047000.7,N
1459794395.6,286047000.8,N
1459794415.5,286047002.1,N
1459794435.3,286047000.2,N
1459794455.1,286047001.5,N
1459794475.9,286047001.5,N
1459794495.7,286047000.1,N
1459794515.5,286047005.9,Y
1459794535.4,286047003.3,P
1459794555.2,286047002.9,N
1459794575.0,286047002.9,N
1459794575.9,286047002.9,N
1459794595.8,286047003.3,Y
1459794615.6,286047002.3,P
1459794635.4,286046999.7,N
1459794655.3,286047000.2,N
1459794675.1,286046998.6,N
1459794676.0,286046998.6,N
1459794695.8,286046999.5,N
1459794715.7,286046998.7,N
1459794735.5,286046998.9,N
1459794755.3,286047000.7,N
1459794775.1,286047002.4,N
1459794795.9,286047001.0,N
1459794815.7,286046999.9,N
1459794835.5,286047001.9,N
1459794855.4,286047002.5,N
1459794875.2,286047002.1,N
1459794895.0,286047002.8,N
1459794895.9,286047002.8,N
1459794915.8,286047004.3,N
1459794935.6,286047001.9,N
1459794955.4,286047001.4,N
1459794975.3,286047003.3,N
1459794995.1,286047005.0,Y
1459794996.0,286047005.0,P
1459795015.8,286047003.5,N
1459795035.7,286047003.2,N
1459795055.5,286047005.6,Y
1459795075.3,286047000.7,P
1459795095.2,286047000.6,N
1459795115.9,286047000.6,N
1459795135.7,286047000.4,N
1459795155.6,286047002.1,N
1459795175.4,286047002.3,N
1459795195.2,286047002.4,N
1459795215.0,286047000.1,N
1459795216.0,286047000.1,N
1459795235.8,286047001.7,N
1459795255.6,286047000.4,N
1459795275.4,286047000.6,N
1459795295.3,286046998.2,N
1459795315.1,286046997.2,N
1459795335.8,286046997.4,N
1459795355.7,286046997.2,N
1459795375.5,286046999.6,N
1459795395.3,286046998.6,N
1459795415.2,286047000.7,N
1459795435.9,286046998.0,N
1459795455.7,286046996.7,N
1459795475.6,286046999.1,N
1459795495.4,286046998.3,N
1459795515.2,286046998.5,N
1459795535.0,286046999.6,N
1459795535.9,286046999.6,N
1459795555.8,286047001.1,N
1459795575.6,286047000.0,N
1459795595.4,286047000.5,N
1459795615.3,286047000.0,N
1459795635.1,286046999.9,N
1459795655.8,286047000.1,N
1459795675.7,286046998.5,N
1459795695.5,286046998.3,N
1459795715.3,286047002.2,N
1459795735.2,286047001.3,N
1459795755.9,286047001.1,N
1459795775.7,286047000.5,N
1459795795.6,286046998.1,N
1459795815.4,286047000.6,N
1459795835.2,286046998.5,N
1459795855.0,286047000.6,N
1459795856.0,286047000.6,N
1459795875.8,286047000.0,N
1459795895.6,286047002.5,N
1459795915.4,286047002.8,N
1459795935.3,286046998.2,N
1459795955.1,286047001.5,N
1459795975.8,286047002.4,N
1459795995.7,286046999.7,N
1459796015.5,286046999.7,N
1459796035.3,286046998.2,N
1459796055.2,286046999.3,N
1459796075.9,286046996.9,N
1459796095.7,286046998.0,N
1459796115.6,286046995.0,Y
1459796135.4,286046999.6,P
1459796155.2,286046997.7,P
1459796175.1,286046994.9,P
1459796176.0,286046994.9,N
1459796195.8,286046995.1,N
1459796215.6,286046993.7,N
1459796235.5,286046999.2,N
1459796255.3,286046999.6,N
1459796275.1,286046998.8,N
1459796295.8,286047001.0,N
1459796315.7,286046999.6,N
1459796335.5,286046999.2,N
1459796355.3,286046999.6,N
1459796375.2,286046996.8,N
1459796395.9,286046999.2,N
